Location: Peterborough
(44.3091°N, 78.3197°W)
Time: 09:33:57
(UTC-04:00)

A-11 Canister half - Pass Details

Date: 20 September 2024
Orbit: 1515 x 1684 km, 47.2° (Epoch: 02 October)

Event Time Altitude Azimuth Distance (km) Brightness Sun altitude
Rises 22:34:30 0° 286° (WNW) 4,697 12.4 -33.9°
Reaches altitude 10° 22:37:34 10° 287° (WNW) 3,700 11.7 -34.3°
Maximum altitude 22:46:54 86° 16° (NNE) 1,522 8.8 -35.5°
Enters shadow 22:47:12 84° 66° (ENE) 1,526 8.7 -35.5°
